This demonstration page uses our WeatherBlox Daily Observations layout. Learn more.

Hourly Observations for March 20, 2018

Temp ( °F °C ) Dew Point ( °F °C ) Humidity (%) Winds ( mph kmh ) Pressure ( in mb ) Visibility ( mi km ) Precip ( " mm )
12:15 am 00:15 Clear 32 0 32 -0.1 99 99 NW 7 11 30.12 1020 10 16.0934 0 0
12:35 am 00:35 Mostly Cloudy 32 0 32 0 100 100 NW 10 17 30.12 1020 10 16.0934 0 0
12:55 am 00:55 Cloudy 33 0.3 32 0 98 98 NNW 12 19 30.12 1020 10 16.0934 0 0
1:15 am 01:15 Cloudy 33 0.3 32 0 98 98 NNW 10 17 30.12 1020 10 16.0934 0 0
1:35 am 01:35 Cloudy 32 0.2 32 0 99 99 NNW 9 15 30.12 1020 10 16.0934 0 0
1:55 am 01:55 Cloudy 32 0.2 32 0 99 99 NNW 9 15 30.12 1020 10 16.0934 0 0
2:15 am 02:15 Cloudy 32 0.1 32 -0.2 98 98 NNW 8 13 30.12 1020 10 16.0934 0 0
2:35 am 02:35 Cloudy 32 0.1 31 -0.3 97 97 NNW 9 15 30.12 1020 10 16.0934 0 0
2:55 am 02:55 Cloudy 32 0.1 31 -0.6 95 95 NNW 8 13 30.12 1020 10 16.0934 0 0
3:15 am 03:15 Cloudy 32 0 31 -0.7 95 95 NW 10 17 30.12 1020 10 16.0934 0 0
3:35 am 03:35 Cloudy 31 -0.3 30 -1 95 95 NW 9 15 30.15 1021 10 16.0934 0 0
3:55 am 03:55 Cloudy 31 -0.5 30 -1.2 95 95 NW 14 22 30.15 1021 10 16.0934 0 0
4:15 am 04:15 Cloudy 30 -1 29 -1.7 95 95 NW 13 20 30.15 1021 10 16.0934 0 0
4:35 am 04:35 Cloudy 30 -1 28 -2 93 93 NW 13 20 30.15 1021 10 16.0934 0 0
4:55 am 04:55 Partly Cloudy 29 -1.4 28 -2.3 94 94 NW 10 17 30.15 1021 10 16.0934 0 0
5:15 am 05:15 Clear 28 -2.2 27 -2.9 95 95 WNW 7 11 30.15 1021 10 16.0934 0 0
5:35 am 05:35 Partly Cloudy 28 -2.2 27 -3 94 94 NW 8 13 30.15 1021 10 16.0934 0 0
5:55 am 05:55 Mostly Cloudy 29 -1.8 27 -2.6 94 94 NW 9 15 30.15 1021 10 16.0934 0 0
6:15 am 06:15 Cloudy 31 -0.6 28 -2 90 90 NW 10 17 30.12 1020 10 16.0934 0 0
6:35 am 06:35 Cloudy 31 -0.7 28 -2.2 90 90 NNW 8 13 30.12 1020 10 16.0934 0 0
6:55 am 06:55 Cloudy 30 -1.2 28 -2.5 91 91 NNW 7 11 30.12 1020 10 16.0934 0 0
7:15 am 07:15 Cloudy 30 -0.9 28 -2.3 90 90 NNW 8 13 30.15 1021 10 16.0934 0 0
7:35 am 07:35 Cloudy 31 -0.7 28 -2 91 91 NNW 8 13 30.15 1021 10 16.0934 0 0
7:55 am 07:55 Cloudy 31 -0.5 28 -2.5 87 87 NNW 7 11 30.15 1021 10 16.0934 0 0
8:15 am 08:15 Cloudy 31 -0.5 27 -2.7 85 85 NNW 9 15 30.15 1021 10 16.0934 0 0
8:35 am 08:35 Cloudy 31 -0.5 28 -2.5 87 87 NW 9 15 30.15 1021 10 16.0934 0 0
8:55 am 08:55 Cloudy 31 -0.3 27 -2.7 84 84 NNW 8 13 30.15 1021 10 16.0934 0 0
9:15 am 09:15 Mostly Cloudy 31 -0.5 27 -2.8 85 85 NNW 9 15 30.15 1021 10 16.0934 0 0
9:35 am 09:35 Cloudy 32 -0.1 27 -2.7 83 83 NNW 8 13 30.12 1020 10 16.0934 0 0
9:55 am 09:55 Partly Cloudy 32 0 27 -2.8 82 82 NNW 9 15 30.12 1020 10 16.0934 0 0
10:15 am 10:15 Sunny 33 0.3 28 -2.5 82 82 NNW 9 15 30.12 1020 10 16.0934 0 0
10:35 am 10:35 Sunny 33 0.5 27 -2.6 80 80 NNW 9 15 30.12 1020 10 16.0934 0 0
10:55 am 10:55 Sunny 33 0.8 27 -2.6 78 78 NNW 9 15 30.12 1020 10 16.0934 0 0
11:15 am 11:15 Sunny 34 1 27 -2.6 77 77 NNW 9 15 30.12 1020 10 16.0934 0 0
11:35 am 11:35 Sunny 34 1 27 -2.6 77 77 NNW 7 11 30.12 1020 10 16.0934 0 0
11:55 am 11:55 Sunny 34 1.3 28 -2.4 77 77 NNW 7 11 30.12 1020 10 16.0934 0 0
12:15 pm 12:15 Sunny 35 1.5 28 -2.4 76 76 NNW 7 11 30.12 1020 10 16.0934 0 0
12:35 pm 12:35 Sunny 35 1.6 28 -2.2 76 76 NNW 8 13 30.12 1020 10 16.0934 0 0
12:55 pm 12:55 Sunny 35 1.5 28 -2.2 77 77 NW 7 11 30.12 1020 10 16.0934 0 0
1:15 pm 13:15 Sunny 36 2.1 29 -1.8 76 76 NW 6 9 30.09 1019 10 16.0934 0 0
1:35 pm 13:35 Sunny 36 2 29 -1.8 76 76 NW 7 11 30.09 1019 10 16.0934 0 0
1:55 pm 13:55 Sunny 35 1.9 28 -2 76 76 WNW 5 7 30.09 1019 10 16.0934 0 0
2:15 pm 14:15 Partly Cloudy 35 1.8 29 -1.7 78 78 W 8 13 30.09 1019 10 16.0934 0 0
2:35 pm 14:35 Mostly Cloudy 36 2 29 -1.6 77 77 W 6 9 30.09 1019 10 16.0934 0 0
2:55 pm 14:55 Partly Cloudy 36 2.2 29 -1.6 76 76 WNW 5 7 30.09 1019 10 16.0934 0 0
3:15 pm 15:15 Sunny 37 3 30 -1.1 75 75 Calm 30.03 1017 10 16.0934 0 0
3:35 pm 15:35 Mostly Cloudy 38 3.4 31 -0.6 75 75 N 3 6 30.03 1017 10 16.0934 0 0
3:55 pm 15:55 Mostly Cloudy 39 4 32 -0.2 74 74 N 3 6 30.03 1017 10 16.0934 0 0
4:15 pm 16:15 Partly Cloudy 40 4.6 32 0 72 72 Calm 30.03 1017 10 16.0934 0 0
4:35 pm 16:35 Partly Cloudy 41 5 32 0 70 70 Calm 30.03 1017 10 16.0934 0 0
4:55 pm 16:55 Sunny 42 5.3 32 0.2 70 70 WNW 3 6 30.03 1017 10 16.0934 0 0
5:15 pm 17:15 Sunny 42 5.6 33 0.3 69 69 Calm 30.03 1017 10 16.0934 0 0
5:35 pm 17:35 Sunny 43 5.9 32 0.1 67 67 Calm 30 1016 10 16.0934 0 0
5:55 pm 17:55 Partly Cloudy 43 6 32 0 66 66 Calm 30 1016 10 16.0934 0 0
6:15 pm 18:15 Cloudy 42 5.7 33 0.8 71 71 NW 5 7 30.06 1018 10 16.0934 0 0
6:35 pm 18:35 Cloudy 42 5.3 35 1.4 76 76 NW 5 7 30.06 1018 10 16.0934 0 0
6:55 pm 18:55 Cloudy 41 5 34 1.1 76 76 WNW 5 7 30.03 1017 10 16.0934 0 0
7:15 pm 19:15 Partly Cloudy 40 4.4 34 1 79 79 NW 6 9 30.06 1018 10 16.0934 0 0
7:35 pm 19:35 Partly Cloudy 38 3.2 34 1 86 86 NW 5 7 30.06 1018 10 16.0934 0 0
7:55 pm 19:55 Partly Cloudy 37 2.8 34 1.1 89 89 WNW 6 9 30.06 1018 10 16.0934 0 0
8:15 pm 20:15 Clear 35 1.6 33 0.7 94 94 NW 3 6 30.09 1019 10 16.0934 0 0
8:35 pm 20:35 Clear 35 1.5 34 0.9 96 96 Calm 30.09 1019 10 16.0934 0 0
8:55 pm 20:55 Clear 34 1.1 33 0.6 97 97 W 3 6 30.09 1019 10 16.0934 0 0
9:15 pm 21:15 Clear 34 0.9 33 0.6 98 98 W 6 9 30.09 1019 10 16.0934 0 0
9:35 pm 21:35 Clear 35 1.4 33 0.7 95 95 WNW 3 6 30.09 1019 10 16.0934 0 0
9:55 pm 21:55 Clear 33 0.8 33 0.3 97 97 W 5 7 30.12 1020 10 16.0934 0 0
10:15 pm 22:15 Clear 32 0.1 32 -0.2 98 98 Calm 30.12 1020 10 16.0934 0 0
10:35 pm 22:35 Clear 32 0.1 32 0 99 99 W 3 6 30.12 1020 10 16.0934 0 0
10:55 pm 22:55 Clear 31 -0.7 31 -0.7 100 100 Calm 30.15 1021 10 16.0934 0 0
11:15 pm 23:15 Clear 31 -0.6 31 -0.6 100 100 Calm 30.18 1022 10 16.0934 0 0
11:35 pm 23:35 Clear 31 -0.4 31 -0.4 100 100 W 5 7 30.18 1022 10 16.0934 0 0
11:55 pm 23:55 Clear 32 0 32 -0.1 99 99 W 6 9 30.18 1022 10 16.0934 0 0

Powered by AerisWeather